Location: Waco, TX
(31.5480°N, 97.1670°W)
Time: 20:45:49
(UTC-05:00)

ISS - Pass Details

Date: 06 January 2018
Orbit: 401 x 409 km, 51.6° (Epoch: 20 August)

Event Time Altitude Azimuth Distance (km) Brightness Sun altitude
Rises 10:47:21 0° 304° (WNW) 2,381 -0.4 30.2°
Reaches altitude 10° 10:49:37 10° 292° (WNW) 1,514 -1.3 30.4°
Maximum altitude 10:52:37 29° 231° (SW) 812 -1.9 30.7°
Drops below altitude 10° 10:55:36 10° 169° (S) 1,506 0.5 31.0°
Sets 10:57:51 0° 158° (SSE) 2,366 1.2 31.2°
